Valparaiso, IN

2:48 PM CST on January 18, 2018 (GMT -0600)
Porter County Municipal

Weather History for KVPZ - August, 2013

Change the Weather History Date:

Friday, August 2, 2013

  Actual Average Record
Temperature  
Mean Temperature 72 °F 72 °F  
Max Temperature 85 °F 81 °F 93 °F (2015)
Min Temperature 59 °F 62 °F 53 °F (2014)
Degree Days  
Heating Degree Days 0 0  
Month to date heating degree days 0 0  
Since 1 June heating degree days 53 45  
Since 1 July heating degree days 16 4  
Cooling Degree Days 7 7  
Month to date cooling degree days 12 14  
Year to date cooling degree days 487 465  
Since 1 June cooling degree days 386 418  
Growing Degree Days 22 (Base 50)    
Moisture  
Dew Point 63 °F    
Average Humidity 87    
Maximum Humidity 100    
Minimum Humidity 56    
Precipitation  
Precipitation 1.68 in 0.13 in 1.68 in (2013)
Month to date precipitation 1.68 0.27  
Year to date precipitation 23.31 21.50  
Sea Level Pressure  
Sea Level Pressure 29.92 in    
Wind  
Wind Speed 6 mph (South)    
Max Wind Speed 21 mph    
Max Gust Speed 29 mph    
Visibility 6 miles    
Events Rain    
T = Trace of Precipitation, MM = Missing Value Source: NWS Daily Summary

Daily Weather History Graph

Daily Weather History Graph

Search for Another Location

Airport or City:

Trip Planner

Search our weather history database for the weather conditions in past years. The results will help you decide how hot, cold, wet, or windy it might be!

Date:

Astronomy

Aug. 02, 2013 Rise Set
Actual Time 5:44 AM CDT 8:03 PM CDT
Civil Twilight 5:13 AM CDT 8:34 PM CDT
Nautical Twilight 4:34 AM CDT 9:12 PM CDT
Astronomical Twilight 3:52 AM CDT 9:55 PM CDT
Moon 2:04 AM CDT (8/2) 5:01 PM CDT (8/2)
Length of Visible Light 15h 21m
Length of Day
14h 19m
Waning Crescent, 15% of the Moon is Illuminated
Aug 2
Waning Crescent
Aug 6
New
Aug 14
First Quarter
Aug 20
Full
Aug 28
Last Quarter

Hourly Weather History & Observations

Time (CDT) Temp. Heat Index Dew Point Humidity Pressure Visibility Wind Dir Wind Speed Gust Speed Precip Events Conditions
12:53 AM 60.1 °F - 54.0 °F 80% 29.97 in 10.0 mi Calm Calm - N/A   Clear
1:53 AM 60.1 °F - 54.0 °F 80% 29.94 in 10.0 mi SSW 4.6 mph - N/A   Clear
2:53 AM 61.0 °F - 55.0 °F 81% 29.94 in 10.0 mi SSW 3.5 mph - N/A   Overcast
3:53 AM 62.1 °F - 57.0 °F 84% 29.95 in 8.0 mi SW 9.2 mph - 0.02 in Rain Light Rain
4:53 AM 61.0 °F - 57.9 °F 90% 29.95 in 10.0 mi SE 3.5 mph - 0.05 in   Overcast
5:53 AM 62.1 °F - 57.9 °F 86% 29.93 in 10.0 mi South 5.8 mph - N/A   Overcast
6:53 AM 63.0 °F - 57.9 °F 84% 29.93 in 10.0 mi ESE 4.6 mph - 0.00 in   Mostly Cloudy
7:53 AM 63.0 °F - 57.9 °F 84% 29.91 in 10.0 mi SSE 5.8 mph - N/A   Overcast
8:21 AM 62.6 °F - 59.0 °F 88% 29.93 in 1.8 mi SSW 4.6 mph - 0.06 in Rain Rain
8:31 AM 62.6 °F - 59.0 °F 88% 29.97 in 3.0 mi WNW 5.8 mph - 0.08 in Rain Light Rain
8:36 AM 60.8 °F - 59.0 °F 94% 29.98 in 1.8 mi Variable 3.5 mph - 0.14 in Rain Heavy Rain
8:53 AM 62.1 °F - 60.1 °F 93% 29.96 in 3.0 mi South 4.6 mph - 0.20 in Rain Light Rain
9:50 AM 62.6 °F - 60.8 °F 94% 29.95 in 2.0 mi South 8.1 mph - 0.10 in Rain Light Rain
9:53 AM 62.1 °F - 60.1 °F 93% 29.95 in 2.5 mi South 8.1 mph - 0.11 in Rain Light Rain
10:03 AM 62.6 °F - 60.8 °F 94% 29.93 in 1.0 mi SSE 9.2 mph - 0.18 in Rain Heavy Rain
10:10 AM 62.6 °F - 60.8 °F 94% 29.95 in 4.0 mi South 9.2 mph - 0.18 in Rain Light Rain
10:37 AM 62.6 °F - 60.8 °F 94% 29.93 in 2.5 mi South 12.7 mph - 0.24 in Rain Light Rain
10:44 AM 64.4 °F - 60.8 °F 88% 29.94 in 8.0 mi South 9.2 mph - 0.24 in   Overcast
10:53 AM 64.0 °F - 62.1 °F 93% 29.93 in 7.0 mi South 11.5 mph - 0.24 in Rain Light Rain
11:53 AM 71.1 °F - 64.0 °F 78% 29.91 in 10.0 mi South 10.4 mph - 0.00 in   Partly Cloudy
12:53 PM 78.1 °F - 66.9 °F 68% 29.89 in 10.0 mi SW 11.5 mph - N/A   Scattered Clouds
1:53 PM 82.0 °F 85.5 °F 69.1 °F 65% 29.88 in 10.0 mi SSW 9.2 mph - N/A   Mostly Cloudy
2:53 PM 84.0 °F 86.5 °F 66.9 °F 56% 29.87 in 10.0 mi WSW 16.1 mph - N/A   Mostly Cloudy
3:53 PM 82.9 °F 85.4 °F 66.9 °F 58% 29.84 in 10.0 mi WSW 15.0 mph 26.5 mph N/A   Mostly Cloudy
4:53 PM 75.0 °F - 66.9 °F 76% 29.86 in 8.0 mi Variable 3.5 mph - 0.00 in Rain Light Rain
5:15 PM 71.6 °F - 68.0 °F 88% 29.88 in 2.5 mi West 9.2 mph - 0.06 in Rain Light Rain
5:41 PM 71.6 °F - 68.0 °F 88% 29.89 in 10.0 mi Calm Calm - 0.14 in   Overcast
5:53 PM 72.0 °F - 68.0 °F 87% 29.88 in 10.0 mi Calm Calm - 0.14 in   Overcast
6:53 PM 71.1 °F - 66.9 °F 87% 29.89 in 10.0 mi Calm Calm - 0.02 in   Overcast
7:14 PM 69.8 °F - 64.4 °F 83% 29.91 in 10.0 mi North 9.2 mph - N/A   Overcast
7:21 PM 68.0 °F - 64.4 °F 88% 29.91 in 10.0 mi Variable 3.5 mph - N/A   Overcast
7:53 PM 68.0 °F - 64.9 °F 90% 29.90 in 10.0 mi ENE 3.5 mph - N/A   Overcast
8:12 PM 68.0 °F - 64.4 °F 88% 29.93 in 2.5 mi West 5.8 mph - 0.13 in Rain Heavy Rain
8:19 PM 68.0 °F - 64.4 °F 88% 29.91 in 1.2 mi NE 6.9 mph - 0.32 in Rain Heavy Rain
8:27 PM 66.2 °F - 66.2 °F 100% 29.91 in 3.0 mi NE 6.9 mph - 0.33 in Rain Light Rain
8:40 PM 68.0 °F - 66.2 °F 94% 29.93 in 1.5 mi Calm Calm - 0.49 in Rain Heavy Rain
8:50 PM 66.2 °F - 66.2 °F 100% 29.93 in 0.8 mi South 6.9 mph - 0.76 in Rain Heavy Rain
8:53 PM 66.9 °F - 66.0 °F 97% 29.92 in 1.0 mi South 8.1 mph - 0.84 in Rain Rain
9:02 PM 66.2 °F - 66.2 °F 100% 29.93 in 2.5 mi South 5.8 mph - 0.05 in Rain Light Rain
9:09 PM 68.0 °F - 66.2 °F 94% 29.93 in 9.0 mi Calm Calm - 0.05 in Rain Light Rain
9:53 PM 66.9 °F - 64.9 °F 93% 29.93 in 5.0 mi Calm Calm - 0.05 in   Overcast
10:53 PM 66.9 °F - 66.0 °F 97% 29.94 in 6.0 mi South 5.8 mph - N/A   Mostly Cloudy
11:53 PM 66.9 °F - 66.0 °F 97% 29.96 in 8.0 mi SSW 3.5 mph - N/A   Overcast